QPF
0.00 0.00 0.00 0.00 0.00 0.00 0.00 0.00 0.00 0.00 0.00 0.00 0.00 0.00 0.00 0.00 0.00 0.00 0.00 0.00 0.00 0.00 0.00 0.00 0.00 0.00 0.01 0.00 0.00 0.00 0.00 0.00 0.00 0.00 0.01 0.01 0.01 0.01 0.01 0.00 0.00 0.00 0.00
0.00 0.00 0.00 0.00 0.00 0.00 0.00 0.00 0.00 0.00 0.00 0.00 0.00 0.00 0.00 0.00 0.00 0.00 0.00 0.00 0.00 0.00 0.00 0.00 0.00 0.00 0.01 0.00 0.00 0.00 0.00 0.00 0.01 0.01 0.01 0.01 0.01 0.01 0.01 0.01 0.00 0.00 0.00
0.00 0.00 0.00 0.00 0.00 0.00 0.00 0.00 0.00 0.00 0.00 0.00 0.00 0.00 0.00 0.00 0.00 0.00 0.00 0.00 0.00 0.00 0.00 0.00 0.00 0.00 0.01 0.00 0.00 0.00 0.00 0.01 0.02 0.03 0.01 0.00 0.00 0.00 0.01 0.00 0.00 0.00 0.00
0.00 0.00 0.00 0.00 0.00 0.00 0.00 0.00 0.00 0.00 0.00 0.00 0.00 0.00 0.00 0.00 0.00 0.00 0.00 0.00 0.00 0.00 0.00 0.00 0.01 0.01 0.01 0.00 0.00 0.01 0.01 0.02 0.02 0.04 0.02 0.01 0.00 0.00 0.00 0.00 0.00 0.00 0.00
0.00 0.00 0.00 0.00 0.00 0.00 0.00 0.00 0.00 0.00 0.00 0.00 0.00 0.00 0.00 0.00 0.00 0.00 0.00 0.00 0.01 0.01 0.00 0.00 0.00 0.00 0.01 0.01 0.01 0.01 0.02 0.02 0.03 0.05 0.05 0.02 0.00 0.01 0.01 0.00 0.00 0.00 0.00
0.00 0.00 0.00 0.00 0.00 0.00 0.00 0.00 0.00 0.00 0.00 0.00 0.00 0.00 0.00 0.00 0.00 0.00 0.01 0.01 0.01 0.01 0.01 0.01 0.01 0.01 0.01 0.01 0.01 0.01 0.03 0.04 0.05 0.06 0.06 0.03 0.01 0.01 0.01 0.00 0.00 0.00 0.00
0.01 0.00 0.00 0.00 0.00 0.00 0.00 0.00 0.00 0.00 0.00 0.00 0.00 0.00 0.00 0.01 0.01 0.01 0.01 0.01 0.01 0.01 0.01 0.01 0.01 0.01 0.01 0.01 0.01 0.01 0.02 0.04 0.05 0.07 0.06 0.03 0.02 0.01 0.01 0.00 0.00 0.00 0.00
0.02 0.00 0.00 0.00 0.00 0.00 0.00 0.00 0.00 0.00 0.01 0.01 0.01 0.01 0.01 0.01 0.01 0.01 0.01 0.01 0.01 0.01 0.01 0.01 0.01 0.01 0.01 0.01 0.01 0.01 0.02 0.04 0.06 0.10 0.08 0.05 0.03 0.02 0.01 0.00 0.00 0.00 0.00
0.05 0.01 0.01 0.01 0.01 0.01 0.00 0.00 0.00 0.01 0.01 0.01 0.02 0.02 0.01 0.01 0.01 0.01 0.01 0.01 0.01 0.01 0.01 0.01 0.01 0.01 0.00 0.00 0.01 0.01 0.02 0.05 0.07 0.11 0.09 0.07 0.04 0.03 0.01 0.00 0.00 0.00 0.00
0.10 0.03 0.02 0.01 0.01 0.01 0.01 0.01 0.01 0.01 0.01 0.01 0.02 0.02 0.02 0.01 0.01 0.01 0.01 0.01 0.02 0.01 0.01 0.01 0.01 0.01 0.01 0.00 0.01 0.01 0.02 0.04 0.06 0.11 0.10 0.08 0.05 0.04 0.02 0.01 0.00 0.00 0.00
0.15 0.09 0.05 0.03 0.02 0.02 0.01 0.01 0.01 0.01 0.01 0.01 0.01 0.01 0.01 0.01 0.01 0.01 0.01 0.02 0.02 0.02 0.02 0.02 0.01 0.01 0.01 0.01 0.01 0.01 0.02 0.05 0.08 0.12 0.10 0.08 0.07 0.05 0.03 0.01 0.01 0.00 0.01
0.22 0.19 0.13 0.07 0.04 0.03 0.02 0.01 0.01 0.01 0.01 0.00 0.00 0.00 0.01 0.01 0.01 0.02 0.03 0.04 0.05 0.04 0.03 0.02 0.02 0.02 0.01 0.01 0.01 0.02 0.03 0.05 0.07 0.16 0.12 0.09 0.08 0.07 0.04 0.03 0.02 0.01 0.01
0.37 0.22 0.14 0.16 0.08 0.05 0.06 0.02 0.02 0.02 0.01 0.01 0.01 0.01 0.01 0.02 0.04 0.06 0.08 0.10 0.08 0.08 0.06 0.04 0.04 0.03 0.02 0.02 0.03 0.04 0.06 0.07 0.09 0.14 0.12 0.12 0.10 0.08 0.06 0.04 0.03 0.02 0.02
0.51 0.36 0.17 0.14 0.12 0.06 0.08 0.04 0.03 0.03 0.04 0.03 0.02 0.02 0.03 0.03 0.05 0.06 0.08 0.12 0.13 0.15 0.10 0.08 0.06 0.05 0.05 0.07 0.08 0.10 0.12 0.12 0.10 0.09 0.11 0.13 0.12 0.11 0.08 0.05 0.03 0.03 0.02
0.71 0.50 0.28 0.18 0.12 0.07 0.05 0.04 0.04 0.04 0.05 0.07 0.07 0.06 0.07 0.06 0.07 0.11 0.13 0.13 0.15 0.17 0.16 0.12 0.08 0.06 0.07 0.09 0.12 0.18 0.18 0.13 0.13 0.13 0.12 0.14 0.16 0.13 0.09 0.06 0.04 0.03 0.03
0.64 0.45 0.36 0.30 0.20 0.11 0.07 0.05 0.04 0.04 0.06 0.09 0.14 0.15 0.17 0.15 0.14 0.22 0.20 0.18 0.19 0.19 0.15 0.18 0.17 0.16 0.12 0.11 0.16 0.22 0.24 0.20 0.20 0.19 0.17 0.14 0.15 0.14 0.10 0.07 0.06 0.06 0.05
0.43 0.37 0.31 0.34 0.36 0.22 0.11 0.10 0.07 0.07 0.09 0.14 0.15 0.15 0.22 0.19 0.13 0.15 0.21 0.24 0.26 0.24 0.16 0.15 0.25 0.28 0.21 0.14 0.15 0.22 0.28 0.24 0.22 0.20 0.23 0.18 0.15 0.14 0.11 0.08 0.09 0.08 0.06
0.38 0.34 0.30 0.33 0.30 0.30 0.16 0.16 0.11 0.09 0.09 0.11 0.14 0.18 0.19 0.17 0.13 0.14 0.16 0.20 0.21 0.16 0.16 0.19 0.24 0.28 0.27 0.22 0.19 0.19 0.22 0.27 0.22 0.21 0.22 0.22 0.18 0.13 0.11 0.09 0.08 0.06 0.06
0.30 0.21 0.19 0.26 0.32 0.27 0.20 0.21 0.18 0.13 0.11 0.14 0.19 0.22 0.15 0.12 0.12 0.11 0.13 0.13 0.15 0.14 0.14 0.19 0.25 0.33 0.29 0.25 0.21 0.17 0.17 0.21 0.24 0.20 0.21 0.25 0.20 0.12 0.08 0.07 0.06 0.06 0.07
0.21 0.19 0.14 0.15 0.24 0.20 0.17 0.16 0.18 0.12 0.10 0.11 0.15 0.17 0.16 0.12 0.12 0.11 0.10 0.09 0.09 0.11 0.14 0.16 0.16 0.21 0.26 0.23 0.19 0.17 0.17 0.17 0.19 0.23 0.19 0.16 0.14 0.09 0.06 0.07 0.06 0.06 0.07
0.20 0.26 0.18 0.11 0.10 0.11 0.11 0.09 0.08 0.09 0.12 0.11 0.08 0.08 0.08 0.06 0.08 0.09 0.08 0.08 0.07 0.08 0.12 0.14 0.16 0.20 0.18 0.16 0.16 0.15 0.15 0.15 0.15 0.17 0.19 0.16 0.13 0.09 0.07 0.06 0.06 0.06 0.08
0.07 0.09 0.08 0.06 0.06 0.06 0.05 0.05 0.06 0.08 0.09 0.10 0.07 0.07 0.07 0.06 0.06 0.06 0.07 0.07 0.07 0.08 0.10 0.11 0.13 0.13 0.12 0.12 0.13 0.15 0.14 0.14 0.13 0.13 0.15 0.14 0.12 0.10 0.08 0.06 0.06 0.07 0.08
0.03 0.04 0.04 0.04 0.04 0.05 0.05 0.06 0.07 0.07 0.10 0.07 0.05 0.05 0.05 0.05 0.05 0.05 0.05 0.06 0.07 0.06 0.07 0.09 0.10 0.11 0.13 0.16 0.15 0.14 0.14 0.13 0.13 0.12 0.11 0.11 0.11 0.12 0.10 0.08 0.06 0.06 0.07
0.02 0.02 0.02 0.02 0.03 0.03 0.04 0.04 0.06 0.06 0.07 0.06 0.04 0.05 0.06 0.06 0.05 0.05 0.04 0.05 0.05 0.05 0.07 0.08 0.09 0.10 0.12 0.16 0.18 0.19 0.18 0.15 0.15 0.15 0.14 0.13 0.13 0.13 0.13 0.11 0.10 0.09 0.11
0.01 0.01 0.01 0.02 0.02 0.02 0.03 0.03 0.04 0.05 0.04 0.05 0.04 0.04 0.03 0.04 0.04 0.03 0.03 0.04 0.05 0.06 0.05 0.06 0.08 0.10 0.10 0.10 0.12 0.15 0.17 0.17 0.15 0.13 0.14 0.15 0.15 0.14 0.13 0.12 0.11 0.11 0.13
0.00 0.01 0.01 0.01 0.01 0.01 0.01 0.02 0.02 0.03 0.04 0.04 0.04 0.04 0.04 0.04 0.03 0.03 0.03 0.04 0.06 0.07 0.08 0.08 0.10 0.12 0.10 0.09 0.10 0.12 0.13 0.14 0.13 0.13 0.13 0.13 0.14 0.14 0.13 0.11 0.11 0.12 0.13
MSLP
1011.56 1011.18 1011.00 1011.06 1011.36 1011.81 1012.31 1012.76 1013.08 1013.24 1013.29 1013.27 1013.29 1013.40 1013.63 1013.98 1014.39 1014.81 1015.18 1015.45 1015.64 1015.75 1015.83 1015.92 1016.06 1016.25 1016.47 1016.71 1016.94 1017.13 1017.29 1017.41 1017.53 1017.65 1017.78 1017.94 1018.09 1018.22 1018.32 1018.38 1018.39 1018.38 1018.37
1011.20 1011.03 1011.04 1011.29 1011.72 1012.26 1012.80 1013.24 1013.53 1013.66 1013.68 1013.67 1013.70 1013.83 1014.08 1014.43 1014.82 1015.20 1015.51 1015.72 1015.86 1015.94 1016.01 1016.12 1016.27 1016.49 1016.73 1016.98 1017.20 1017.37 1017.50 1017.60 1017.71 1017.83 1017.99 1018.16 1018.34 1018.48 1018.58 1018.63 1018.63 1018.61 1018.59
1010.74 1010.75 1010.95 1011.36 1011.93 1012.55 1013.14 1013.60 1013.89 1014.02 1014.05 1014.06 1014.12 1014.27 1014.53 1014.86 1015.21 1015.53 1015.77 1015.92 1016.01 1016.07 1016.15 1016.28 1016.47 1016.71 1016.98 1017.22 1017.41 1017.56 1017.65 1017.73 1017.83 1017.96 1018.13 1018.33 1018.52 1018.69 1018.81 1018.86 1018.86 1018.83 1018.81
1010.26 1010.40 1010.74 1011.29 1011.96 1012.67 1013.30 1013.79 1014.10 1014.27 1014.34 1014.39 1014.49 1014.67 1014.94 1015.25 1015.55 1015.80 1015.97 1016.06 1016.11 1016.16 1016.26 1016.43 1016.67 1016.94 1017.22 1017.45 1017.62 1017.72 1017.78 1017.82 1017.90 1018.03 1018.22 1018.44 1018.67 1018.86 1018.99 1019.05 1019.05 1019.03 1019.02
1009.85 1010.08 1010.52 1011.14 1011.89 1012.64 1013.31 1013.82 1014.17 1014.38 1014.51 1014.63 1014.79 1015.02 1015.29 1015.58 1015.84 1016.02 1016.13 1016.17 1016.20 1016.26 1016.39 1016.60 1016.89 1017.20 1017.48 1017.70 1017.83 1017.89 1017.90 1017.90 1017.96 1018.09 1018.28 1018.53 1018.78 1018.99 1019.13 1019.20 1019.21 1019.19 1019.18
1009.65 1009.91 1010.38 1011.04 1011.80 1012.55 1013.22 1013.75 1014.13 1014.39 1014.59 1014.79 1015.02 1015.30 1015.59 1015.87 1016.09 1016.22 1016.28 1016.29 1016.31 1016.38 1016.55 1016.82 1017.14 1017.48 1017.77 1017.97 1018.07 1018.07 1018.03 1018.00 1018.03 1018.15 1018.35 1018.61 1018.87 1019.09 1019.24 1019.31 1019.32 1019.31 1019.31
1009.74 1009.99 1010.45 1011.09 1011.81 1012.53 1013.16 1013.67 1014.06 1014.35 1014.61 1014.89 1015.19 1015.53 1015.86 1016.14 1016.33 1016.43 1016.45 1016.43 1016.45 1016.55 1016.75 1017.06 1017.43 1017.79 1018.08 1018.26 1018.32 1018.28 1018.19 1018.13 1018.13 1018.24 1018.44 1018.70 1018.97 1019.19 1019.34 1019.41 1019.41 1019.39 1019.38
1010.18 1010.41 1010.83 1011.40 1012.04 1012.67 1013.22 1013.67 1014.03 1014.34 1014.64 1014.97 1015.34 1015.73 1016.10 1016.39 1016.57 1016.65 1016.64 1016.61 1016.63 1016.74 1016.98 1017.31 1017.70 1018.08 1018.37 1018.53 1018.56 1018.49 1018.37 1018.29 1018.28 1018.38 1018.58 1018.83 1019.09 1019.30 1019.44 1019.48 1019.47 1019.44 1019.42
1010.95 1011.15 1011.52 1012.01 1012.54 1013.04 1013.47 1013.83 1014.12 1014.40 1014.71 1015.08 1015.50 1015.93 1016.33 1016.63 1016.81 1016.87 1016.85 1016.80 1016.82 1016.94 1017.18 1017.53 1017.93 1018.31 1018.59 1018.75 1018.77 1018.69 1018.56 1018.47 1018.46 1018.55 1018.75 1018.99 1019.24 1019.43 1019.54 1019.57 1019.54 1019.48 1019.46
1011.94 1012.14 1012.46 1012.86 1013.26 1013.62 1013.91 1014.14 1014.34 1014.56 1014.85 1015.22 1015.66 1016.12 1016.53 1016.84 1017.02 1017.07 1017.03 1016.98 1016.98 1017.09 1017.33 1017.68 1018.08 1018.45 1018.74 1018.90 1018.92 1018.85 1018.74 1018.66 1018.66 1018.77 1018.95 1019.19 1019.42 1019.59 1019.68 1019.68 1019.62 1019.55 1019.51
1013.02 1013.23 1013.52 1013.84 1014.12 1014.34 1014.47 1014.55 1014.64 1014.78 1015.02 1015.37 1015.81 1016.27 1016.69 1017.01 1017.19 1017.23 1017.18 1017.11 1017.10 1017.19 1017.42 1017.75 1018.13 1018.50 1018.80 1018.97 1019.02 1018.99 1018.92 1018.87 1018.89 1019.01 1019.19 1019.41 1019.62 1019.77 1019.83 1019.82 1019.75 1019.67 1019.63
1014.03 1014.26 1014.53 1014.78 1014.96 1015.04 1015.03 1014.98 1014.94 1014.99 1015.17 1015.49 1015.90 1016.36 1016.78 1017.10 1017.27 1017.31 1017.26 1017.18 1017.15 1017.23 1017.43 1017.74 1018.11 1018.48 1018.78 1018.99 1019.08 1019.10 1019.08 1019.08 1019.14 1019.27 1019.45 1019.66 1019.84 1019.97 1020.02 1020.00 1019.94 1019.86 1019.83
1014.82 1015.09 1015.34 1015.54 1015.62 1015.59 1015.47 1015.30 1015.17 1015.13 1015.25 1015.52 1015.90 1016.34 1016.76 1017.07 1017.26 1017.31 1017.26 1017.18 1017.15 1017.21 1017.38 1017.67 1018.03 1018.40 1018.73 1018.97 1019.13 1019.21 1019.26 1019.31 1019.40 1019.54 1019.72 1019.91 1020.07 1020.18 1020.23 1020.22 1020.17 1020.13 1020.11
1015.33 1015.60 1015.84 1015.99 1016.01 1015.90 1015.69 1015.44 1015.23 1015.14 1015.20 1015.43 1015.79 1016.21 1016.61 1016.93 1017.13 1017.19 1017.17 1017.11 1017.08 1017.14 1017.31 1017.59 1017.94 1018.31 1018.66 1018.96 1019.17 1019.33 1019.44 1019.55 1019.68 1019.83 1020.00 1020.17 1020.31 1020.41 1020.45 1020.46 1020.45 1020.44 1020.47
1015.53 1015.79 1016.00 1016.11 1016.08 1015.92 1015.66 1015.37 1015.12 1014.99 1015.02 1015.22 1015.55 1015.95 1016.34 1016.67 1016.88 1016.98 1016.99 1016.97 1016.97 1017.04 1017.21 1017.49 1017.84 1018.23 1018.61 1018.95 1019.24 1019.46 1019.65 1019.81 1019.97 1020.13 1020.29 1020.43 1020.55 1020.63 1020.68 1020.71 1020.74 1020.79 1020.87
1015.48 1015.70 1015.87 1015.93 1015.86 1015.68 1015.41 1015.11 1014.86 1014.72 1014.74 1014.91 1015.21 1015.59 1015.97 1016.30 1016.54 1016.67 1016.73 1016.76 1016.80 1016.90 1017.10 1017.38 1017.74 1018.15 1018.57 1018.96 1019.31 1019.61 1019.86 1020.08 1020.27 1020.43 1020.58 1020.70 1020.79 1020.86 1020.91 1020.96 1021.03 1021.14 1021.27
1015.30 1015.45 1015.56 1015.58 1015.48 1015.29 1015.03 1014.75 1014.52 1014.39 1014.40 1014.56 1014.83 1015.17 1015.53 1015.86 1016.11 1016.29 1016.40 1016.48 1016.58 1016.72 1016.95 1017.26 1017.64 1018.07 1018.52 1018.97 1019.38 1019.74 1020.06 1020.33 1020.55 1020.73 1020.86 1020.96 1021.03 1021.08 1021.13 1021.20 1021.30 1021.45 1021.63
1015.09 1015.18 1015.22 1015.18 1015.07 1014.88 1014.64 1014.40 1014.20 1014.08 1014.09 1014.22 1014.45 1014.75 1015.07 1015.38 1015.64 1015.85 1016.01 1016.15 1016.30 1016.50 1016.75 1017.09 1017.49 1017.95 1018.44 1018.93 1019.41 1019.84 1020.22 1020.55 1020.81 1021.00 1021.14 1021.22 1021.27 1021.31 1021.35 1021.42 1021.54 1021.71 1021.93
1014.97 1014.98 1014.95 1014.87 1014.74 1014.55 1014.34 1014.13 1013.95 1013.85 1013.85 1013.94 1014.12 1014.36 1014.64 1014.91 1015.17 1015.39 1015.59 1015.78 1015.98 1016.22 1016.51 1016.88 1017.30 1017.78 1018.30 1018.84 1019.37 1019.87 1020.32 1020.70 1021.01 1021.24 1021.39 1021.47 1021.51 1021.53 1021.56 1021.63 1021.75 1021.93 1022.16
1014.96 1014.91 1014.83 1014.71 1014.55 1014.36 1014.17 1013.98 1013.83 1013.73 1013.70 1013.76 1013.88 1014.06 1014.27 1014.50 1014.73 1014.96 1015.18 1015.40 1015.64 1015.92 1016.24 1016.62 1017.06 1017.56 1018.10 1018.67 1019.24 1019.80 1020.32 1020.77 1021.14 1021.41 1021.59 1021.69 1021.73 1021.75 1021.78 1021.84 1021.95 1022.13 1022.35
1015.08 1014.99 1014.86 1014.70 1014.52 1014.32 1014.13 1013.95 1013.81 1013.71 1013.67 1013.68 1013.74 1013.86 1014.01 1014.19 1014.39 1014.60 1014.83 1015.08 1015.34 1015.64 1015.97 1016.35 1016.79 1017.28 1017.83 1018.41 1019.02 1019.62 1020.20 1020.71 1021.14 1021.47 1021.70 1021.85 1021.92 1021.96 1021.99 1022.05 1022.15 1022.32 1022.53
1015.30 1015.18 1015.02 1014.82 1014.60 1014.38 1014.18 1014.01 1013.87 1013.77 1013.71 1013.69 1013.71 1013.78 1013.88 1014.02 1014.19 1014.39 1014.61 1014.86 1015.12 1015.41 1015.73 1016.10 1016.50 1016.97 1017.50 1018.08 1018.69 1019.32 1019.94 1020.50 1021.00 1021.40 1021.70 1021.90 1022.04 1022.12 1022.18 1022.26 1022.37 1022.53 1022.73
1015.55 1015.43 1015.23 1014.99 1014.74 1014.49 1014.27 1014.09 1013.96 1013.86 1013.81 1013.79 1013.80 1013.84 1013.92 1014.04 1014.18 1014.36 1014.57 1014.79 1015.03 1015.29 1015.57 1015.88 1016.24 1016.65 1017.12 1017.66 1018.25 1018.88 1019.51 1020.12 1020.67 1021.15 1021.53 1021.83 1022.04 1022.20 1022.33 1022.46 1022.60 1022.77 1022.98
1015.82 1015.69 1015.47 1015.18 1014.88 1014.59 1014.35 1014.17 1014.04 1013.97 1013.95 1013.96 1013.99 1014.05 1014.14 1014.25 1014.38 1014.54 1014.71 1014.89 1015.08 1015.28 1015.49 1015.72 1015.98 1016.30 1016.69 1017.16 1017.69 1018.28 1018.91 1019.54 1020.14 1020.69 1021.17 1021.57 1021.90 1022.18 1022.41 1022.62 1022.83 1023.05 1023.27
1016.08 1015.95 1015.69 1015.36 1015.01 1014.68 1014.42 1014.24 1014.14 1014.11 1014.14 1014.21 1014.30 1014.40 1014.51 1014.63 1014.76 1014.89 1015.01 1015.13 1015.25 1015.35 1015.46 1015.58 1015.73 1015.93 1016.21 1016.57 1017.02 1017.55 1018.14 1018.77 1019.41 1020.03 1020.61 1021.14 1021.61 1022.02 1022.39 1022.72 1023.03 1023.32 1023.59
1016.35 1016.21 1015.93 1015.55 1015.15 1014.78 1014.50 1014.33 1014.27 1014.30 1014.40 1014.54 1014.71 1014.87 1015.02 1015.16 1015.27 1015.36 1015.42 1015.46 1015.47 1015.46 1015.44 1015.43 1015.45 1015.52 1015.67 1015.92 1016.26 1016.71 1017.26 1017.87 1018.53 1019.21 1019.89 1020.54 1021.16 1021.74 1022.26 1022.74 1023.17 1023.55 1023.89
Thickness
5801 5803 5801 5800 5798 5796 5794 5793 5790 5789 5787 5785 5784 5783 5782 5780 5778 5776 5774 5771 5768 5766 5764 5761 5759 5757 5755 5753 5752 5750 5748 5746 5744 5742 5740 5739 5737 5735 5733 5731 5730 5728 5727
5808 5803 5800 5798 5796 5794 5792 5790 5788 5786 5784 5782 5781 5779 5778 5777 5775 5773 5771 5769 5766 5764 5762 5759 5758 5755 5754 5752 5750 5748 5746 5744 5742 5741 5739 5737 5736 5734 5731 5729 5728 5726 5725
5808 5803 5799 5796 5793 5791 5789 5787 5785 5783 5781 5779 5777 5776 5774 5773 5772 5770 5768 5766 5764 5762 5760 5757 5756 5754 5752 5750 5748 5746 5744 5742 5740 5738 5737 5735 5734 5732 5730 5728 5727 5725 5724
5807 5801 5797 5794 5791 5788 5786 5783 5781 5779 5778 5775 5773 5772 5770 5769 5768 5767 5765 5763 5761 5760 5757 5755 5753 5752 5750 5749 5747 5745 5742 5741 5739 5737 5735 5734 5733 5731 5729 5727 5726 5724 5723
5803 5798 5794 5791 5788 5786 5783 5780 5778 5776 5774 5772 5770 5768 5767 5765 5764 5763 5762 5760 5759 5757 5755 5753 5751 5750 5749 5747 5745 5744 5742 5740 5738 5737 5734 5733 5732 5730 5728 5727 5725 5723 5722
5797 5794 5790 5787 5784 5782 5780 5777 5774 5772 5770 5768 5767 5765 5764 5762 5761 5760 5759 5757 5756 5755 5753 5751 5749 5748 5747 5745 5744 5742 5741 5739 5738 5736 5734 5732 5731 5729 5728 5726 5724 5723 5721
5790 5788 5785 5782 5779 5777 5775 5773 5771 5769 5767 5765 5764 5762 5761 5759 5758 5757 5756 5755 5753 5752 5750 5748 5747 5745 5744 5743 5742 5741 5740 5739 5738 5736 5733 5732 5731 5729 5728 5725 5723 5722 5721
5785 5781 5779 5777 5775 5773 5771 5770 5768 5766 5764 5763 5761 5759 5758 5756 5755 5754 5753 5751 5750 5749 5747 5746 5744 5743 5742 5741 5740 5739 5738 5738 5737 5735 5733 5731 5730 5729 5727 5725 5723 5721 5720
5777 5775 5773 5771 5770 5768 5767 5765 5764 5762 5761 5759 5758 5756 5755 5753 5752 5751 5749 5748 5747 5746 5744 5743 5741 5740 5739 5738 5737 5737 5736 5735 5735 5733 5732 5730 5729 5728 5726 5725 5723 5721 5719
5769 5769 5767 5766 5765 5764 5763 5761 5760 5758 5757 5756 5754 5753 5751 5750 5748 5747 5746 5745 5744 5743 5741 5740 5738 5737 5736 5735 5734 5734 5734 5733 5732 5731 5730 5729 5728 5727 5725 5724 5722 5721 5719
5758 5760 5761 5760 5759 5758 5758 5757 5755 5754 5752 5751 5750 5749 5747 5746 5744 5744 5743 5741 5740 5739 5738 5737 5736 5735 5734 5733 5732 5731 5731 5730 5729 5729 5728 5727 5726 5725 5724 5723 5721 5720 5718
5750 5751 5753 5754 5753 5753 5753 5751 5751 5749 5748 5747 5746 5744 5743 5742 5741 5740 5739 5738 5737 5736 5735 5734 5733 5732 5731 5730 5729 5729 5729 5728 5727 5726 5726 5726 5725 5724 5723 5721 5720 5718 5717
5741 5743 5745 5746 5747 5748 5748 5747 5746 5745 5743 5743 5742 5741 5739 5737 5736 5736 5736 5735 5734 5733 5732 5731 5730 5729 5728 5727 5727 5726 5726 5725 5725 5725 5724 5724 5723 5722 5721 5720 5718 5717 5715
5735 5735 5738 5740 5741 5742 5744 5743 5742 5741 5740 5740 5739 5738 5735 5733 5732 5732 5732 5732 5731 5730 5730 5729 5727 5726 5725 5724 5724 5723 5723 5723 5722 5722 5722 5721 5721 5719 5718 5718 5717 5715 5713
5730 5728 5731 5736 5737 5738 5739 5740 5739 5738 5737 5737 5736 5734 5732 5731 5729 5730 5730 5729 5728 5727 5726 5726 5724 5722 5720 5720 5720 5720 5720 5720 5720 5719 5719 5719 5718 5717 5715 5715 5714 5713 5711
5722 5723 5729 5730 5730 5732 5733 5734 5735 5734 5734 5733 5733 5732 5731 5729 5728 5726 5726 5726 5725 5724 5723 5722 5720 5717 5716 5716 5716 5717 5717 5717 5716 5715 5715 5715 5714 5714 5713 5712 5711 5709 5708
5723 5723 5726 5729 5727 5727 5728 5728 5729 5731 5731 5730 5729 5729 5728 5727 5726 5724 5723 5722 5721 5721 5720 5718 5716 5713 5712 5712 5712 5712 5712 5712 5711 5711 5710 5710 5709 5709 5709 5709 5707 5705 5704
5721 5719 5721 5724 5723 5723 5723 5724 5724 5725 5726 5725 5725 5725 5725 5723 5721 5720 5719 5718 5716 5716 5715 5713 5712 5710 5708 5708 5707 5707 5707 5707 5706 5707 5706 5705 5704 5704 5704 5704 5703 5701 5700
5715 5713 5712 5716 5717 5718 5719 5719 5718 5718 5720 5720 5720 5720 5720 5719 5717 5715 5714 5713 5712 5711 5711 5710 5708 5706 5703 5702 5701 5701 5700 5700 5700 5701 5700 5700 5700 5699 5699 5698 5698 5697 5695
5707 5706 5707 5710 5712 5713 5713 5713 5711 5713 5713 5714 5713 5713 5713 5713 5711 5710 5709 5708 5707 5706 5706 5705 5703 5701 5700 5698 5697 5695 5694 5694 5695 5694 5695 5695 5694 5694 5693 5693 5692 5691 5690
5702 5700 5698 5703 5705 5706 5706 5704 5704 5704 5704 5704 5705 5705 5705 5705 5705 5705 5704 5703 5703 5702 5701 5701 5698 5696 5694 5694 5690 5687 5686 5687 5687 5688 5689 5689 5688 5688 5688 5687 5686 5686 5685
5696 5695 5695 5697 5698 5700 5700 5700 5701 5700 5698 5698 5698 5698 5698 5698 5699 5699 5699 5698 5698 5697 5695 5694 5694 5691 5690 5690 5686 5681 5677 5677 5678 5680 5681 5682 5682 5682 5681 5680 5680 5679 5678
5688 5688 5689 5690 5692 5693 5695 5695 5693 5691 5691 5689 5689 5690 5692 5693 5693 5693 5693 5693 5693 5692 5690 5689 5689 5688 5685 5685 5685 5680 5674 5672 5671 5671 5673 5674 5675 5675 5674 5673 5672 5671 5671
5682 5682 5682 5683 5683 5684 5686 5685 5683 5681 5679 5680 5681 5682 5684 5685 5686 5686 5686 5687 5687 5686 5685 5685 5685 5684 5682 5679 5678 5679 5677 5675 5668 5664 5663 5665 5666 5667 5667 5666 5664 5663 5662
5676 5675 5674 5674 5674 5675 5676 5676 5675 5674 5673 5674 5675 5675 5675 5676 5677 5678 5678 5679 5679 5680 5680 5680 5680 5678 5677 5676 5674 5672 5670 5668 5668 5663 5657 5656 5656 5657 5658 5657 5657 5655 5654
5668 5667 5666 5666 5665 5666 5667 5667 5666 5666 5666 5666 5666 5666 5666 5667 5668 5669 5669 5670 5671 5671 5672 5673 5673 5672 5672 5671 5671 5670 5668 5664 5662 5660 5655 5651 5648 5646 5647 5647 5647 5646 5645